TimeEST,TemperatureF,Dew PointF,Humidity,Sea Level PressureIn,VisibilityMPH,Wind Direction,Wind SpeedMPH,Gust SpeedMPH,PrecipitationIn,Events,Conditions,WindDirDegrees,DateUTC
12:53 AM,73.0,72.0,96,30.02,10.0,NE,3.5,-,N/A,,Partly Cloudy,40,2012-12-09 05:53:00
1:53 AM,73.0,72.0,96,30.01,10.0,NNE,4.6,-,N/A,,Scattered Clouds,20,2012-12-09 06:53:00
2:03 AM,73.4,71.6,94,30.01,10.0,NE,3.5,-,N/A,,Mostly Cloudy,40,2012-12-09 07:03:00
2:13 AM,73.4,71.6,94,30.01,9.0,NNE,3.5,-,N/A,,Partly Cloudy,30,2012-12-09 07:13:00
2:53 AM,73.0,72.0,96,29.99,10.0,Calm,Calm,-,N/A,,Partly Cloudy,0,2012-12-09 07:53:00
3:53 AM,73.0,72.0,96,30.00,10.0,NE,3.5,-,N/A,,Partly Cloudy,40,2012-12-09 08:53:00
4:51 AM,73.4,71.6,94,30.01,10.0,NNE,4.6,-,N/A,,Partly Cloudy,30,2012-12-09 09:51:00
4:53 AM,73.0,72.0,96,30.01,10.0,NNE,4.6,-,N/A,,Partly Cloudy,20,2012-12-09 09:53:00
5:28 AM,73.4,71.6,94,30.02,10.0,NNE,5.8,-,N/A,,Mostly Cloudy,20,2012-12-09 10:28:00
5:53 AM,73.0,72.0,96,30.03,10.0,NNE,4.6,-,N/A,,Overcast,20,2012-12-09 10:53:00
6:19 AM,71.6,71.6,100,30.03,1.8,NNE,8.1,-,N/A,,Overcast,30,2012-12-09 11:19:00
6:30 AM,71.6,71.6,100,30.03,1.0,NNE,5.8,-,N/A,,Mist,20,2012-12-09 11:30:00
6:43 AM,71.6,71.6,100,30.04,0.8,NNE,6.9,-,N/A,,Mist,20,2012-12-09 11:43:00
6:50 AM,71.6,71.6,100,30.04,0.5,NE,5.8,-,N/A,Fog,Fog,40,2012-12-09 11:50:00
6:53 AM,72.0,71.1,97,30.04,0.5,NNE,5.8,-,N/A,Fog,Fog,20,2012-12-09 11:53:00
7:09 AM,71.6,71.6,100,30.04,0.2,NNE,5.8,-,N/A,Fog,Fog,30,2012-12-09 12:09:00
7:53 AM,72.0,72.0,100,30.05,0.2,NE,4.6,-,N/A,Fog,Fog,40,2012-12-09 12:53:00
8:44 AM,73.4,73.4,100,30.07,0.5,NNE,5.8,-,N/A,Fog,Fog,30,2012-12-09 13:44:00
8:53 AM,73.0,73.0,100,30.07,0.5,NE,5.8,-,N/A,Fog,Fog,40,2012-12-09 13:53:00
9:00 AM,73.4,73.4,100,30.07,1.0,NE,4.6,-,N/A,,Mist,40,2012-12-09 14:00:00
9:10 AM,73.4,73.4,100,30.07,2.0,NE,3.5,-,N/A,,Overcast,50,2012-12-09 14:10:00
9:20 AM,73.4,73.4,100,30.08,5.0,NE,4.6,-,N/A,,Mostly Cloudy,50,2012-12-09 14:20:00
9:36 AM,73.4,73.4,100,30.08,10.0,ENE,5.8,-,N/A,,Partly Cloudy,60,2012-12-09 14:36:00
9:53 AM,78.1,75.0,90,30.08,10.0,NE,3.5,-,N/A,,Clear,50,2012-12-09 14:53:00
10:53 AM,80.1,73.9,81,30.08,10.0,Calm,Calm,-,N/A,,Clear,0,2012-12-09 15:53:00
11:24 AM,78.8,73.4,83,30.07,10.0,North,8.1,-,N/A,,Mostly Cloudy,350,2012-12-09 16:24:00
11:43 AM,80.6,73.4,79,30.06,10.0,NNE,6.9,-,N/A,,Scattered Clouds,20,2012-12-09 16:43:00
11:53 AM,81.0,73.9,79,30.06,10.0,NE,4.6,-,N/A,,Partly Cloudy,40,2012-12-09 16:53:00
12:53 PM,82.0,73.9,76,30.03,10.0,Variable,3.5,-,N/A,,Clear,0,2012-12-09 17:53:00
1:53 PM,81.0,73.9,79,30.00,10.0,NE,4.6,-,N/A,,Partly Cloudy,50,2012-12-09 18:53:00
2:53 PM,81.0,73.9,79,30.00,10.0,NNE,5.8,-,N/A,,Partly Cloudy,20,2012-12-09 19:53:00
3:53 PM,80.1,73.9,81,30.00,10.0,NNE,5.8,-,N/A,,Scattered Clouds,30,2012-12-09 20:53:00
4:04 PM,80.6,73.4,79,30.00,10.0,NNE,6.9,-,N/A,,Mostly Cloudy,30,2012-12-09 21:04:00
4:38 PM,78.8,73.4,83,29.99,10.0,NE,3.5,-,N/A,,Scattered Clouds,40,2012-12-09 21:38:00
4:53 PM,80.1,73.9,81,30.00,10.0,NNE,4.6,-,N/A,,Partly Cloudy,30,2012-12-09 21:53:00
5:53 PM,78.1,73.9,87,30.01,10.0,NE,4.6,-,N/A,,Scattered Clouds,40,2012-12-09 22:53:00
6:53 PM,77.0,73.9,90,30.02,10.0,ENE,4.6,-,N/A,,Clear,70,2012-12-09 23:53:00
7:53 PM,77.0,73.9,90,30.02,10.0,ENE,3.5,-,N/A,,Clear,60,2012-12-10 00:53:00
8:53 PM,75.9,73.9,94,30.03,10.0,ENE,4.6,-,N/A,,Clear,70,2012-12-10 01:53:00
9:53 PM,75.9,73.9,94,30.04,10.0,East,5.8,-,N/A,,Mostly Cloudy,80,2012-12-10 02:53:00
10:53 PM,77.0,73.9,90,30.04,10.0,East,3.5,-,N/A,,Partly Cloudy,80,2012-12-10 03:53:00
11:53 PM,77.0,75.0,94,30.03,10.0,East,6.9,-,N/A,,Mostly Cloudy,90,2012-12-10 04:53:00